Showing default

QIANFAN-65, 62795

Orbit data source: Space-Track

QIANFAN-65, 62795 is a Chinese payload satellite in LEO that was launched on Thu, 23 Jan 2025 UTC via a CHANG ZHENG 6A launch vehicle from the Taiyaun Space Center, China (TSC). Payload-class satellites include a variety of spacecraft equipped with specific instruments for various scientific and technological missions. These include communications satellites like Starlink; space stations such as the ISS; scientific satellites like the Hubble; Earth observation satellites from companies like Planet Labs, Umbra, and HawkEye 360; GPS; miniature CubeSats for education and research; and military/defense satellites.

Loading next visibility...
Identifier
62795, 2025-016L
Orbit
LEO
Last TLE update
14 hours ago
Origin
Manufacturer
SECM
Mission
Operational Commercial Communications
Bus & Motor
QIANFAN, Unknown motor
Mass
267 kg wet, ~267 kg dry
Launch date (UTC)
2025-01-23 (5 months ago)
Launch vehicle
CHANG ZHENG 6A
Launch site
Taiyaun Space Center, China (TSC)
Object type
Payload
Rocket body
Debris
Shape & HBR
Box + 1 Pan, 10 m
Radar Cross Section
13.200 m², Large (>1 m²)

Expand to show TLE details & history

TLE from 14 hours ago
0 QIANFAN-65
1 62795U 25016L   25181.86187809  .00000114  00000-0  15832-3 0  9995
2 62795  88.9846 120.0668 0016252  96.8140 263.4860 13.50952286 24984
Epoch: 2025-06-30T20:41Z
TLE epoch observation values (Epoch: 2025-06-30T20:41:06.266Z)
Latitude
-0.00014°
Longitude
-109.37491°
Altitude
1,073.103 km
Speed
7.315 km/s
True Right ascension
08h 00m 16s
True Declination
0° 00' 01"
Sunlit
Object was in daylight at epoch
Visualization orbit readout
Latitude
-50.76372°
Longitude
71.80434°
Altitude
1,097.124 km
Speed
7.299 km/s
Apparent Right ascension
14h 43m 46s
Apparent Declination
-76° 56' 40"
Sunlit
Object is in full shadow
Visualization observer readout
Local Sidereal Time
21:54:16
Azimuth
197.021° SSW
Elevation
-42.652°
Doppler factor
1
Orbital elements
Apogee altitude
1,077.906 km
Perigee altitude
1,053.71 km
Semi-major axis
7,443.945 km
Eccentricity
0.00163
Inclination
88.9846°
RAAN
120.0668°
Arg. of periapsis
96.814°
True anomaly
Unknown
Mean anomaly
263.486°
Eccentric anomaly
Unknown
Mean motion
3.37939 °/min
Orbital period
106.53 mins
BSTAR
0.00015832
Loading maneuver chart data...
Loading SW <> Apogee altitude chart data...
Loading historical data...
Loading historical data...
Loading historical data...
Loading historical data...
Loading historical data...
Loading historical data...
Loading historical data...

QIANFAN-65 Visibility forecast

Observer location: undefined°, undefined°

Span
Click to sort rows by Start time (UTC) header in descending order
Start Az.
Max El. time (UTC)
Max El. Az.
Max El.
End time (UTC)
End Az.
12 mins2025-07-01 19:53:51.599Z160.544° S2025-07-01 19:59:51.599Z68.972° E40.718°2025-07-01 20:05:51.599Z6.777° NNE
8 mins2025-07-01 21:42:51.599Z243.213° WSW2025-07-01 21:46:51.599Z286.644° WNW19.612°2025-07-01 21:50:51.599Z326.352° NNW
9 mins2025-07-02 07:04:51.599Z34.153° NE2025-07-02 07:08:51.599Z83.846° E25.647°2025-07-02 07:13:51.599Z137.186° SSE
10 mins2025-07-02 08:50:51.599Z341.098° N2025-07-02 08:54:51.599Z290.618° WNW34.449°2025-07-02 09:00:51.599Z211.458° SW
|